Location: Góry Miechowskie
(50.3599°N, 20.1803°E)
Time: 17:48:03
(UTC+00:00)

Cosmos 2228 - Pass Details

Date: 21 September 2024
Orbit: 574 x 600 km, 82.5° (Epoch: 12 October)

Event Time Altitude Azimuth Distance (km) Brightness Sun altitude
Exits shadow 00:07:42 17° 49° (NE) 1,536 5.7 -35.1°
Drops below altitude 10° 00:09:07 10° 34° (NE) 1,945 6.4 -35.0°
Sets 00:11:39 0° 21° (NNE) 2,857 7.5 -34.8°
